Regional Weather Roundup
Issued by NWS Northern Indiana

Home | Current Version | Previous Version | Text Only | Print | Product List | Glossary On
Versions: 1 2 3 4 5 6 7 8 9 10 11 12 13 14 15 16 17 18 19 20 21 22 23 24 25 26 27 28 29 30 31 32 33 34 35 36 37 38 39 40 41 42 43 44 45 46 47 48 49 50
000
ASUS43 KIWX 270910
RWRIWX

KIWX WEATHER ROUNDUP
NATIONAL WEATHER SERVICE NORTHERN INDIANA
500 AM EDT WED MAY 27 2015

NOTE: "FAIR" INDICATES FEW OR NO CLOUDS BELOW 12,000 FEET WITH NO
SIGNIFICANT WEATHER AND/OR OBSTRUCTIONS TO VISIBILITY.

* THESE STATIONS ARE NOT UNDER NWS QUALITY CONTROL. THEY ALSO MAY NOT
  REPORT WEATHER SUCH AS PRECIPITATION OR FOG.

INZ001>027-271000-
NORTHERN INDIANA

CITY           SKY/WX    TMP DP  RH WIND       PRES   REMARKS
GARY*          CLEAR     68  62  79 SW7       29.89R
VALPARAISO     CLEAR     66  59  78 SW14      29.92R
MICHIGAN CITY* CLEAR     64  57  77 SW10      29.91R
LAPORTE*       PTCLDY    67  61  79 SW13      29.92R
KNOX*          CLEAR     64  59  82 SW12G17   29.92R
SOUTH BEND     PTCLDY    67  59  75 SW13      29.91R
GOSHEN         MOCLDY    66  59  78 SW15      29.92S
MONTICELLO*    CLEAR     65  62  90 S10       29.95R
LOGANSPORT*    CLEAR     64  57  77 SW14      29.97R
ROCHESTER*     CLEAR     68  61  77 SW9G16    29.95R
WARSAW*        MOCLDY    66  59  77 SW8       29.94R
ANGOLA*        CLEAR     63  54  72 S8        29.94S
FORT WAYNE     CLEAR     63  60  90 SW9       29.97S
HUNTINGTON*    CLEAR     64  60  84 SW8       29.97R
PERU/GRISSOM   CLEAR     66  60  83 SW15G21   29.96R
MARION*        CLEAR     63  58  84 SW10      30.00R

$$
INZ028>050-271000-
CENTRAL INDIANA

CITY           SKY/WX    TMP DP  RH WIND       PRES   REMARKS
LAFAYETTE      CLEAR     65  60  84 SW7       29.96R
KOKOMO*        CLEAR     66  59  77 SW16      29.98R
MUNCIE*        CLEAR     65  60  84 SW9       30.00S
INDIANAPOLIS   CLEAR     64  59  83 S9        30.00R

$$
MIZ043>046-050>051-056>058-064>065-071>073-077>080-271000-
SOUTHWEST LOWER MICHIGAN

CITY           SKY/WX    TMP DP  RH WIND       PRES   REMARKS
BATTLE CREEK   MOCLDY    66  60  81 S13       29.90R
BENTON HARBOR  CLOUDY    68  60  75 SW15G28   29.87R
COLDWATER*     CLEAR     64  58  80 S6        29.92S
HILLSDALE*     CLEAR     65  62  90 S6        29.94S
HOLLAND        CLOUDY    67  59  75 SW23G33   29.85R
GRAND RAPIDS   CLOUDY    67  61  81 S16G24    29.84S
KALAMAZOO      MOCLDY    67  59  75 S10       29.89R
STURGIS*       PTCLDY    64  61  88 SW13      29.91S
THREE RIVERS*  MOCLDY    66  59  79 SW10      29.91R

$$
OHZ001>008-015>018-024>025-271000-
NORTHWEST OHIO

CITY           SKY/WX    TMP DP  RH WIND       PRES   REMARKS
WAUSEON*       FAIR      64  64 100 SW12      29.96R
DEFIANCE       PTCLDY    67  60  78 SW10      29.96S
FINDLAY        CLEAR     67  63  87 S12       29.99R
TOLEDO EXPRESS PTCLDY    66  64  93 S8        29.95S
TOLEDO METCALF PTCLDY    68  63  84 SW13      29.96S
LIMA           CLEAR     66  63  90 S9        30.01R

$$
AND FOR LAKE MICHIGAN COASTAL AND OPEN LAKE BUOY OBSERVATIONS

STATION/POSITION TEMP    WIND        PRES    VSBY  WAVE
                 AIR SEA DIR/SP/G                  HT/PER
                 (F)     (DEG/KT/KT) (MB)    (MI)  (FT/S)
CALUMET HARBOR    67     200/  9/ 13   N/A
MICHIGAN CITY     68     180/ 17/ 21   N/A
BURNS HARBOR      68     210/ 17/ 22 1012.5R
SAINT JOSEPH      66     180/ 14/ 20 1011.9F
SOUTH LAKE BUOY   44 38  200/ 10/ 12 1010.8R         2/ 4
4 MI NW BRIDGMAN  61 55  230/ 12/ 12   N/A           3/ 4
MICHIGAN CITY     63 52  220/ 14/ 17   N/A           2/ 3

$$
&&


USA.gov is the U.S. government's official web portal to all federal, state and local government web resources and services.